Keene, NH

11:21 AM EDT on June 25, 2017 (GMT -0400)
Dillant-Hopkins

Weather History for KEEN - May, 2012

Change the Weather History Date:

Thursday, May 31, 2012

  Actual Average Record
Temperature  
Mean Temperature 66 °F -  
Max Temperature 75 °F 75 °F 92 °F (1987)
Min Temperature 57 °F 49 °F 25 °F (1961)
Cooling Degree Days 1    
Growing Degree Days 16 (Base 50)    
Moisture  
Dew Point 48 °F    
Average Humidity 49    
Maximum Humidity 82    
Minimum Humidity 29    
Precipitation  
Precipitation 0.00 in - - ()
Sea Level Pressure  
Sea Level Pressure 29.81 in    
Wind  
Wind Speed 3 mph (NNW)    
Max Wind Speed 14 mph    
Max Gust Speed 18 mph    
Visibility 8 miles    
Events      
Averages and records for this station are not official NWS values.
T = Trace of Precipitation, MM = Missing Value Source: NWS Daily Summary

Daily Weather History Graph

Daily Weather History Graph

Search for Another Location

Airport or City:

Trip Planner

Search our weather history database for the weather conditions in past years. The results will help you decide how hot, cold, wet, or windy it might be!

Date:

Astronomy

May. 31, 2012 Rise Set
Actual Time 5:13 AM EDT 8:20 PM EDT
Civil Twilight 4:39 AM EDT 8:55 PM EDT
Nautical Twilight 3:55 AM EDT 9:39 PM EDT
Astronomical Twilight 3:02 AM EDT 10:32 PM EDT
Moon 4:02 PM EDT (5/31) 2:15 AM EDT (5/31)
Length of Visible Light 16h 16m
Length of Day
15h 07m
Waxing Gibbous, 80% of the Moon is Illuminated
May 31
Waxing Gibbous
Jun 4
Full
Jun 11
Last Quarter
Jun 19
New
Jun 26
First Quarter

Hourly Weather History & Observations

Time (EDT) Temp. Dew Point Humidity Pressure Visibility Wind Dir Wind Speed Gust Speed Precip Events Conditions
12:15 AM - - N/A% 29.76 in 9.0 mi Calm Calm - N/A   Scattered Clouds
12:35 AM - - N/A% 29.77 in 5.0 mi Calm Calm - N/A   Mostly Cloudy
12:55 AM - - N/A% 29.77 in 6.0 mi Calm Calm - N/A   Mostly Cloudy
1:35 AM - - N/A% 29.76 in 5.0 mi Calm Calm - N/A   Mostly Cloudy
1:55 AM - - N/A% 29.75 in 3.0 mi Calm Calm - N/A   Scattered Clouds
2:15 AM - - N/A% 29.75 in 2.0 mi Calm Calm - N/A   Scattered Clouds
2:35 AM - - N/A% 29.74 in 0.5 mi Calm Calm - N/A   Overcast
2:55 AM - - N/A% 29.74 in 0.8 mi Calm Calm - N/A   Overcast
3:15 AM - - N/A% 29.74 in 0.5 mi Calm Calm - N/A   Overcast
3:35 AM - - N/A% 29.74 in 1.0 mi Calm Calm - N/A   Overcast
4:15 AM - - N/A% 29.75 in 0.5 mi Calm Calm - N/A   Overcast
4:35 AM - - N/A% 29.75 in 4.0 mi Calm Calm - N/A   Overcast
4:55 AM - - N/A% 29.75 in 0.5 mi Calm Calm - N/A   Overcast
5:15 AM - - N/A% 29.75 in 0.5 mi Calm Calm - N/A   Overcast
5:35 AM - - N/A% 29.75 in 1.2 mi Calm Calm - N/A   Overcast
6:15 AM - - N/A% 29.76 in 2.5 mi South 3.5 mph - N/A   Overcast
6:35 AM - - N/A% 29.78 in 6.0 mi South 3.5 mph - N/A   Overcast
6:55 AM - - N/A% 29.79 in 10.0 mi Calm Calm - N/A   Scattered Clouds
7:15 AM - - N/A% 29.79 in 10.0 mi Calm Calm - N/A   Scattered Clouds
7:35 AM - - N/A% 29.80 in 10.0 mi Calm Calm - N/A   Scattered Clouds
8:15 AM - - N/A% 29.80 in 10.0 mi Calm Calm - N/A   Partly Cloudy
8:35 AM - - N/A% 29.80 in 10.0 mi Calm Calm - N/A   Clear
8:55 AM - - N/A% 29.80 in 10.0 mi Calm Calm - N/A   Clear
9:15 AM - - N/A% 29.80 in 10.0 mi NNE 4.6 mph - N/A   Clear
9:35 AM - - N/A% 29.80 in 10.0 mi Calm Calm - N/A   Clear
9:55 AM - - N/A% 29.80 in 10.0 mi NNW 4.6 mph - N/A   Clear
10:15 AM - - N/A% 29.79 in 10.0 mi NW 8.1 mph - N/A   Clear
10:55 AM - - N/A% 29.79 in 10.0 mi NNE 12.7 mph - N/A   Clear
11:15 AM 71.6 °F 37.4 °F 29% 29.80 in 10.0 mi North 9.2 mph - N/A   Clear
11:35 AM 71.6 °F 51.8 °F 50% 29.80 in 2.5 mi North 9.2 mph 16.1 mph N/A   Partly Cloudy
12:35 PM 73.4 °F 48.2 °F 41% 29.79 in 10.0 mi North 13.8 mph 18.4 mph N/A   Partly Cloudy
12:55 PM 73.4 °F 48.2 °F 41% 29.78 in 10.0 mi WNW 9.2 mph - N/A   Partly Cloudy
1:15 PM 73.4 °F 46.4 °F 38% 29.79 in 10.0 mi North 11.5 mph 17.3 mph N/A   Mostly Cloudy
1:55 PM 73.4 °F 48.2 °F 41% 29.79 in 10.0 mi NNW 6.9 mph - N/A   Mostly Cloudy
2:15 PM 73.4 °F 44.6 °F 36% 29.79 in 10.0 mi NNW 6.9 mph - N/A   Mostly Cloudy
2:35 PM 75.2 °F 46.4 °F 36% 29.79 in 10.0 mi NNW 10.4 mph 17.3 mph N/A   Partly Cloudy
2:55 PM 75.2 °F 44.6 °F 34% 29.80 in 10.0 mi NNW 10.4 mph 16.1 mph N/A   Scattered Clouds
3:15 PM 75.2 °F 44.6 °F 34% 29.79 in 10.0 mi North 12.7 mph 16.1 mph N/A   Mostly Cloudy
3:55 PM 73.4 °F 44.6 °F 36% 29.79 in 10.0 mi NNW 8.1 mph 16.1 mph N/A   Mostly Cloudy
4:15 PM 75.2 °F 44.6 °F 34% 29.79 in 10.0 mi NW 5.8 mph - N/A   Mostly Cloudy
4:35 PM 75.2 °F 46.4 °F 36% 29.79 in 10.0 mi NW 8.1 mph - N/A   Scattered Clouds
4:55 PM 75.2 °F 46.4 °F 36% 29.80 in 8.0 mi WNW 5.8 mph - N/A   Partly Cloudy
5:15 PM 75.2 °F 46.4 °F 36% 29.81 in 10.0 mi NNW 10.4 mph - N/A   Clear
5:35 PM 75.2 °F 46.4 °F 36% 29.81 in 10.0 mi North 9.2 mph - N/A   Clear
5:55 PM 73.4 °F 46.4 °F 38% 29.81 in 10.0 mi North 10.4 mph - N/A   Clear
6:15 PM 73.4 °F 48.2 °F 41% 29.81 in 10.0 mi NNW 5.8 mph - N/A   Partly Cloudy
6:35 PM 73.4 °F 46.4 °F 38% 29.82 in 10.0 mi NNW 6.9 mph - N/A   Clear
6:55 PM 73.4 °F 48.2 °F 41% 29.83 in 10.0 mi NNW 6.9 mph - N/A   Partly Cloudy
7:15 PM 71.6 °F 48.2 °F 43% 29.84 in 10.0 mi NNW 5.8 mph - N/A   Scattered Clouds
8:15 PM 69.8 °F 51.8 °F 53% 29.86 in 10.0 mi North 6.9 mph - N/A   Mostly Cloudy
8:35 PM 68.0 °F 51.8 °F 56% 29.86 in 10.0 mi NNE 6.9 mph - N/A   Partly Cloudy
8:55 PM 64.4 °F 51.8 °F 64% 29.87 in 10.0 mi Calm Calm - N/A   Clear
9:15 PM 64.4 °F 51.8 °F 64% 29.89 in 10.0 mi North 4.6 mph - N/A   Scattered Clouds
9:35 PM 62.6 °F 51.8 °F 68% 29.90 in 10.0 mi NNE 4.6 mph - N/A   Mostly Cloudy
10:15 PM 62.6 °F 50.0 °F 63% 29.92 in 10.0 mi ENE 4.6 mph - N/A   Clear
10:35 PM 60.8 °F 51.8 °F 72% 29.93 in 10.0 mi Calm Calm - N/A   Clear
10:55 PM 59.0 °F 51.8 °F 77% 29.94 in 10.0 mi Calm Calm - N/A   Clear
11:15 PM 57.2 °F 51.8 °F 82% 29.95 in 10.0 mi Calm Calm - N/A   Clear
11:35 PM 57.2 °F 51.8 °F 82% 29.96 in 10.0 mi NNW 4.6 mph - N/A   Clear
11:55 PM 57.2 °F 50.0 °F 77% 29.96 in 10.0 mi North 3.5 mph - N/A   Clear